Regional Weather Roundup
Issued by NWS

Home | Current Version | Previous Version | Text Only | Print | Product List | Glossary On
Versions: 1 2 3 4 5 6 7 8 9 10 11 12 13 14 15 16 17 18 19 20 21 22 23 24 25 26 27 28 29 30 31 32 33 34 35 36 37 38 39 40 41 42 43 44 45 46 47 48 49 50
000
ASUS45 KTFX 191810
RWRMT
MONTANA REGIONAL WEATHER ROUNDUP
NATIONAL WEATHER SERVICE GREAT FALLS MT
1200 PM MDT TUE SEP 19 2017

NOTE: "FAIR" INDICATES FEW OR NO CLOUDS BELOW 12000 FEET WITH NO
SIGNIFICANT WEATHER AND/OR OBSTRUCTIONS TO VISIBILITY.

MTZ001>007-043-191900-
WEST OF THE DIVIDE

CITY           SKY/WX    TMP DP  RH WIND       PRES   REMARKS
KALISPELL      CLOUDY    46  43  89 CALM      29.70F
MISSOULA       LGT RAIN  46  43  89 NW8       29.74S
BUTTE          PTSUNNY   45  30  55 CALM      29.73F
MULLAN PASS    SNOW      32  30  92 SW8       29.71S VSB 1/4 WCI  25
ANACONDA         N/A     50  25  37 CALM      29.71F
DEER LODGE       N/A     45  36  70 CALM      29.74F
HAMILTON         N/A     45  36  70 CALM      29.76R
LIBBY            N/A     45  43  93 CALM      29.70F
PLAINS           N/A     48  43  83 CALM      29.76
$$

MTZ008-052>055-191900-
SOUTHWEST MONTANA

CITY           SKY/WX    TMP DP  RH WIND       PRES   REMARKS
BOZEMAN        CLOUDY    49  38  65 SE7       29.73F
DILLON         CLOUDY    47  31  53 SW10G18   29.75S
W YELLOWSTONE  MIX PCPN  36  32  87 SW13      29.81R WCI  27
ENNIS          CLOUDY    45  32  61 SW13      29.81S
THREE FORKS      N/A     53  37  54 S13       29.75S
$$

MTZ009-010-012-014-046-048-049-054-191900-
EAST SLOPES AND CENTRAL MONTANA

CITY           SKY/WX    TMP DP  RH WIND       PRES   REMARKS
CUT BANK       MOSUNNY   54  26  34 W22G29    29.60S
GREAT FALLS    CLOUDY    55  28  35 SW15G28   29.63F
MALMSTROM AFB  CLOUDY    53  29  39 W15G25    29.64F
HELENA           N/A    N/A N/A N/A MISG      29.69F
BOWMANS CRNR     N/A     47  28  46 SW17      29.64S
CHOTEAU          N/A     55  25  30 W13       29.64R
FAIRFIELD        N/A     52  27  37 SW20G25   29.62S
POWER            N/A     54  27  35 W7        29.62F
RAYNESFORD     PTSUNNY   52  24  33 W18G24    29.64S
ULM              N/A     55  29  38 W16G22    29.65S
$$

MTZ011-013-016-021-045-047-050-051-191900-
NORTH CENTRAL MONTANA

CITY           SKY/WX    TMP DP  RH WIND       PRES   REMARKS
HAVRE          CLOUDY    51  37  58 W12       29.61S
LEWISTOWN      CLOUDY    50  30  46 NW12G18   29.63F
N BAR RANCH      N/A     50  30  46 W14G21    29.66S
CHINOOK          N/A     50  37  62 W14       29.59F
DENTON           N/A     53  29  40 W17G24    29.60S
GEYSER         PTSUNNY   50  28  42 W20G25    29.63S
GRASS RANGE    PTSUNNY   51  29  42 NW16      29.60F
JUDITH GAP       N/A     49  27  41 N14G23    29.64F
WINIFRED       PTSUNNY   50  35  57 NW12      29.62F
$$

MTZ017>020-022>027-061-062-191900-
NORTHEAST MONTANA

CITY           SKY/WX    TMP DP  RH WIND       PRES   REMARKS
GLASGOW        CLOUDY    56  39  53 W22       29.54R
JORDAN           N/A     55  36  48 W21G26    29.58S
SIDNEY         CLOUDY    60  49  66 W21       29.48S
WOLF POINT     CLOUDY    59  47  64 W20       29.52F
MALTA          SUNNY     54  39  58 W22G28    29.57S
PLENTYWOOD       N/A     55  52  88 W14       29.46R
POPLAR           N/A     57  48  72 W16       29.51S
SCOBEY           N/A     55  45  69 W12       29.51
$$

MTZ028>42-056>058-191900-
SOUTHCENTRAL AND SOUTHEAST MONTANA

CITY           SKY/WX    TMP DP  RH WIND       PRES   REMARKS
BAKER          LGT RAIN  53  43  68 W13       29.57R
BILLINGS       LGT RAIN  47  39  74 CALM      29.68S
LIVINGSTON     MOSUNNY   49  38  65 W20G28    29.70F
MILES CITY     CLOUDY    57  37  47 W20G28    29.58S
BIG TIMBER     SUNNY     48  36  61 W22G29    29.72R
EKALAKA          N/A     54  46  74 NW10      29.61
HARLOWTON      PTSUNNY   50  28  43 MISG      29.66S
LAUREL           N/A     46  41  81 SW9       29.70S
$$

REGIONAL REPORTS...DAKOTAS

CITY           SKY/WX    TMP DP  RH WIND       PRES   REMARKS
WILLISTON      CLOUDY    62  53  72 W12       29.46S
MINOT          CLOUDY    68  60  75 SE14G23   29.45R
DICKINSON      CLOUDY    59  51  75 W14       29.51R
BEACH          PTSUNNY   55  48  76 W16       29.56S
CROSBY         PTSUNNY   59  54  82 SW12      29.43S
TIOGA          CLOUDY    57  57 100 W12       29.47S
WATFORD CITY     N/A     61  54  77 W14G22    29.47F
BISMARCK       CLOUDY    70  43  37 S20       29.49R
GRAND FORKS    CLOUDY    69  63  81 SE20G29   29.63F
FARGO          MOSUNNY   77  63  61 SE18G29   29.63F
BUFFALO SD       N/A     64  49  57 NW15      29.49R
RAPID CITY     SUNNY     70  45  40 N16       29.52F
$$

REGIONAL REPORTS...WYOMING/IDAHO/WASHINGTON

CITY           SKY/WX    TMP DP  RH WIND       PRES   REMARKS
GILLETTE       LGT RAIN  50  46  86 NW12      29.63R
SHERIDAN       CLOUDY    48  41  76 NW15      29.67S
BUFFALO WY     LGT RAIN  44  40  85 N15G22    29.68R
CODY           LGT RAIN  45  38  76 N13G20    29.71R
YELLOWSTONE LA   N/A     34  29  82 VRB7      29.82R WCI  28
IDAHO FALLS    PTSUNNY   51  36  56 SW23G33   29.84F
SALMON         LGT RAIN  47  37  68 S13G21    29.79S
BOISE          CLOUDY    53  40  61 N3        29.91F
SPOKANE        LGT RAIN  47  44  90 SW15      29.73S
$$

REGIONAL REPORTS...ALBERTA

CITY           SKY/WX    TMP DP  RH WIND       PRES   REMARKS
EDMONTON       LGT RAIN  37  36  93 W14G21    29.41R WCI  29
CALGARY        MOSUNNY   50  30  46 S8        29.53F
LETHBRIDGE     MOSUNNY   57  25  28 W20G30    29.55F
MEDICINE HAT   PTSUNNY   52  41  66 W9        29.56F
$$

REGIONAL REPORTS...SASKATCHEWAN

CITY           SKY/WX    TMP DP  RH WIND       PRES   REMARKS
SWIFT CURRENT  PTSUNNY   54  41  62 W17G24    29.47F
REGINA         LGT RAIN  52  50  93 S8        29.39F
SASKATOON      LGT RAIN  54  52  94 SE10      29.42F FOG
$$



USA.gov is the U.S. government's official web portal to all federal, state and local government web resources and services.